Regional Weather Roundup
Issued by NWS

Home | Current Version | Previous Version | Text Only | Print | Product List | Glossary Off
Versions: 1 2 3 4 5 6 7 8 9 10 11 12 13 14 15 16 17 18 19 20 21 22 23 24 25 26 27 28 29 30 31 32 33 34 35 36 37 38 39 40 41 42 43 44 45 46 47 48 49 50

000
ASUS45 KSLC 251210
RWRUT

UTAH REGIONAL WEATHER ROUNDUP
NATIONAL WEATHER SERVICE SALT LAKE CITY UT
600 AM MDT THU MAY 25 2017

UTZ001>011-023>025-251300-

NORTHERN UTAH

CITY           SKY/WX    TMP DP  RH WIND       PRES   REMARKS
BRIGHAM CITY   CLOUDY    52  45  76 NE5       29.71R
HILL AFB       LGT RAIN  53  40  61 CALM      29.72S
LOGAN          CLOUDY    50  43  77 CALM      29.71R
OGDEN          LGT RAIN  52  41  66 E3        29.71F
SALT LAKE CITY CLOUDY    58  38  47 NE6       29.68F
TOOELE VALLEY  CLOUDY    55  41  58 NE5       29.70F
WENDOVER       MOCLDY    55  24  30 W6        29.72
HEBER CITY     CLOUDY    54  34  47 N14G21    29.71R
WEST JORDAN    CLOUDY    54  44  69 N7G23     29.72F

$$

UTZ011>015-024>027-251300-

CENTRAL/NORTHEAST UTAH

CITY           SKY/WX    TMP DP  RH WIND       PRES   REMARKS
PROVO AIRPORT  CLOUDY    58  40  51 NW23G30   29.68R
MOAB/CANYONLAN CLOUDY    66  35  31 CALM      29.55F
DELTA          CLOUDY    55  30  38 N10       29.68S
PRICE          MOCLDY    57  35  43 N8        29.63F
ROOSEVELT      CLOUDY    54  43  66 SW6       29.62S
VERNAL         PTCLDY    55  42  61 SW7       29.61R

$$

UTZ013>016-019>022-027-251300-

SOUTHERN UTAH

CITY           SKY/WX    TMP DP  RH WIND       PRES   REMARKS
BRYCE CANYON   PTCLDY    35  25  66 CALM      29.82F
CEDAR CITY     PTCLDY    52  30  43 S7        29.70S
MILFORD        CLOUDY    61  33  35 N18       29.67R
HANKSVILLE     MOCLDY    70  21  16 SW5       29.59S
BLANDING       CLEAR     53  26  34 NE5       29.81R

$$

REGIONAL REPORTS     COLORADO/ARIZONA

CITY           SKY/WX    TMP DP  RH WIND       PRES   REMARKS
CRAIG, CO      CLOUDY    56  38  50 CALM      29.65R
GRAND JUNCTION CLOUDY    63  34  33 E3        29.60S
RIFLE, CO      PTCLDY    54  35  48 E3        29.65S
MONTROSE, CO   PTCLDY    64  25  22 S9        29.71R
CORTEZ, CO     CLOUDY    62  20  19 CALM      29.77R
COLORADO CITY    N/A     55  27  33 SE5       29.73R
PAGE, AZ       CLEAR     75  15  10 SW13G23   29.62F
GRAND CANYON   PTCLDY    54  17  23 S8        29.85S
KINGMAN, AZ    CLEAR     71  23  16 MISG      29.67R
FLAGSTAFF, AZ  CLEAR     47  19  33 S3        29.91F

$$

REGIONAL REPORTS    NEVADA/IDAHO/WYOMING

CITY           SKY/WX    TMP DP  RH WIND       PRES   REMARKS
LAS VEGAS, NV  MOCLDY    78  27  15 S10       29.52R
ELY, NY        MOCLDY    44  35  70 E8        29.77R
ELKO, NV       CLOUDY    50  36  58 W10       29.77R
POCATELLO, ID  PTCLDY    40  30  67 S12       29.75R WCI  33
BURLEY, ID     PTCLDY    44  27  51 W15G28    29.71R
FORT BRIDGER,  CLOUDY    41  40  98 SW7       29.82S
EVANSTON, WY   LGT RAIN  41  37  86 SW3       29.79S
ROCK SPRINGS,  LGT RAIN  41  36  82 W15       29.77R
KEMMERER, WY   DRIZZLE   37  34  87 SW16G26   29.76S WCI  28

$$



USA.gov is the U.S. government's official web portal to all federal, state and local government web resources and services.